Norfolk, NE

2:01 PM CDT on May 28, 2017 (GMT -0500)
Stefan Memorial

Weather History for KOFK - April, 2013

Change the Weather History Date:

Monday, April 29, 2013

  Actual Average Record
Temperature  
Mean Temperature 66 °F 55 °F  
Max Temperature 82 °F 67 °F 93 °F (1926)
Min Temperature 50 °F 43 °F 25 °F (1958)
Degree Days  
Heating Degree Days 0 11  
Month to date heating degree days 623 462  
Since 1 July heating degree days 6536 6411  
Cooling Degree Days 1 1  
Month to date cooling degree days 4 11  
Year to date cooling degree days 4 11  
Growing Degree Days 16 (Base 50)    
Moisture  
Dew Point 42 °F    
Average Humidity 49    
Maximum Humidity 74    
Minimum Humidity 23    
Precipitation  
Precipitation 0.00 in 0.10 in 1.80 in (1895)
Month to date precipitation 3.70 2.55  
Year to date precipitation 5.88 5.67  
Snow  
Snow 0.00 in 0.10 in - ()
Month to date snowfall 6.6 2.6  
Since 1 July snowfall 27.3 30.5  
Snow Depth 0.00 in    
Sea Level Pressure  
Sea Level Pressure 29.65 in    
Wind  
Wind Speed 11 mph (SE)    
Max Wind Speed 18 mph    
Max Gust Speed 23 mph    
Visibility 10 miles    
Events      
T = Trace of Precipitation, MM = Missing Value Source: NWS Daily Summary

Daily Weather History Graph

Daily Weather History Graph

Search for Another Location

Airport or City:

Trip Planner

Search our weather history database for the weather conditions in past years. The results will help you decide how hot, cold, wet, or windy it might be!

Date:

Astronomy

Apr. 29, 2013 Rise Set
Actual Time 6:28 AM CDT 8:26 PM CDT
Civil Twilight 5:57 AM CDT 8:57 PM CDT
Nautical Twilight 5:20 AM CDT 9:34 PM CDT
Astronomical Twilight 4:40 AM CDT 10:14 PM CDT
Moon No Moon Rise 9:48 AM CDT (4/29)
Length of Visible Light 14h 59m
Length of Day
13h 58m
Waning Gibbous, 80% of the Moon is Illuminated
Apr 29
Waning Gibbous
May 2
Last Quarter
May 9
New
May 17
First Quarter
May 24
Full

Hourly Weather History & Observations

Time (CDT) Temp. Dew Point Humidity Pressure Visibility Wind Dir Wind Speed Gust Speed Precip Events Conditions
12:56 AM 55.9 °F 41.0 °F 57% 29.78 in 10.0 mi NW 6.9 mph - N/A   Clear
1:56 AM 55.0 °F 39.9 °F 57% 29.78 in 10.0 mi North 10.4 mph - N/A   Clear
2:56 AM 53.1 °F 42.1 °F 66% 29.78 in 10.0 mi NNW 9.2 mph - N/A   Clear
3:56 AM 53.1 °F 44.1 °F 71% 29.75 in 10.0 mi NNE 9.2 mph - N/A   Clear
4:56 AM 51.1 °F 43.0 °F 74% 29.78 in 10.0 mi North 9.2 mph - N/A   Clear
5:56 AM 50.0 °F 43.0 °F 77% 29.81 in 10.0 mi NNW 9.2 mph - N/A   Partly Cloudy
6:56 AM 51.1 °F 41.0 °F 68% 29.79 in 10.0 mi North 11.5 mph - N/A   Partly Cloudy
7:56 AM 51.1 °F 37.0 °F 59% 29.80 in 10.0 mi NNE 6.9 mph - N/A   Scattered Clouds
8:56 AM 52.0 °F 37.9 °F 59% 29.78 in 10.0 mi NE 6.9 mph - N/A   Clear
9:56 AM 57.9 °F 41.0 °F 53% 29.74 in 10.0 mi ENE 8.1 mph - N/A   Clear
10:56 AM 64.0 °F 45.0 °F 50% 29.70 in 10.0 mi ENE 10.4 mph - N/A   Clear
11:56 AM 66.0 °F 45.0 °F 47% 29.73 in 10.0 mi SSE 5.8 mph - N/A   Clear
12:56 PM 71.1 °F 44.1 °F 38% 29.68 in 10.0 mi ESE 9.2 mph - N/A   Clear
1:56 PM 75.0 °F 43.0 °F 32% 29.66 in 10.0 mi SSE 11.5 mph 16.1 mph N/A   Clear
2:56 PM 75.9 °F 42.1 °F 30% 29.62 in 10.0 mi SE 11.5 mph 16.1 mph N/A   Clear
3:56 PM 80.1 °F 42.1 °F 26% 29.58 in 10.0 mi South 11.5 mph - N/A   Clear
4:56 PM 81.0 °F 41.0 °F 24% 29.55 in 10.0 mi SSW 11.5 mph - N/A   Clear
5:56 PM 81.0 °F 43.0 °F 26% 29.52 in 10.0 mi South 10.4 mph - N/A   Clear
6:56 PM 80.1 °F 39.9 °F 24% 29.50 in 10.0 mi South 10.4 mph - N/A   Clear
7:42 PM 75.2 °F 42.8 °F 31% 29.52 in 10.0 mi South 8.1 mph - N/A   Partly Cloudy
7:56 PM 73.9 °F 42.1 °F 32% 29.50 in 10.0 mi South 8.1 mph - N/A   Partly Cloudy
8:56 PM 68.0 °F 43.0 °F 40% 29.49 in 10.0 mi SSE 10.4 mph - N/A   Clear
9:56 PM 70.0 °F 46.0 °F 42% 29.47 in 10.0 mi SSE 15.0 mph - N/A   Clear
10:56 PM 71.1 °F 46.9 °F 42% 29.45 in 10.0 mi SSE 15.0 mph - N/A   Clear
11:56 PM 69.1 °F 48.0 °F 47% 29.42 in 10.0 mi South 13.8 mph - N/A   Clear